SJX511 YSSY-RCTP

Flight info

Callsign SJX511
Flight time N/A
Altitude 34000
Route TESAT H530 LASUD Q238 DUPUG/N0500F350 Q141 ESKUT/N0503F340 Q141 OVRON B462 APISO/N0500F360 B462 PY B586 PIKOK DCT GALEE DCT 14N136E/N0491F380 21N131E DCT TUNTO R595 GRACE GRACE1A
Aircraft A359/H-SDE2E3GHIJ3J4J5LM1ORWXY/LB1D1

Departure

Time 2026-05-05 16:06
Airport Sydney Kingsford Smith International Airport (YSSY)

Arrival

Time N/A
Airport Taiwan Taoyuan International Airport (RCTP)
Time Latitude Longitude Altitude Speed Heading
2026-05-05 15:48 -33.93923 151.16988 27 ft 0 kts 253°
2026-05-05 15:55 -33.93921 151.16993 27 ft 2 kts 254°
2026-05-05 15:55 -33.93918 151.17014 27 ft 3 kts 270°
2026-05-05 15:55 -33.93918 151.17037 27 ft 2 kts 264°
2026-05-05 15:55 -33.93917 151.17054 26 ft 3 kts 250°
2026-05-05 15:56 -33.93912 151.17068 26 ft 3 kts 217°
2026-05-05 15:56 -33.93899 151.17076 25 ft 3 kts 186°
2026-05-05 15:56 -33.93880 151.17077 26 ft 3 kts 172°
2026-05-05 15:56 -33.93867 151.17075 26 ft 1 kts 167°
2026-05-05 15:57 -33.93866 151.17074 26 ft 0 kts 167°
2026-05-05 15:58 -33.93867 151.17075 26 ft 0 kts 167°
2026-05-05 15:58 -33.93884 151.17079 26 ft 5 kts 167°
2026-05-05 15:59 -33.93941 151.17095 26 ft 12 kts 166°
2026-05-05 15:59 -33.93987 151.17176 30 ft 13 kts 82°
2026-05-05 15:59 -33.94032 151.17239 27 ft 11 kts 165°
2026-05-05 15:59 -33.94109 151.17260 28 ft 13 kts 167°
2026-05-05 16:00 -33.94209 151.17287 28 ft 16 kts 168°
2026-05-05 16:00 -33.94328 151.17317 31 ft 18 kts 168°
2026-05-05 16:00 -33.94451 151.17348 33 ft 18 kts 168°
2026-05-05 16:00 -33.94580 151.17382 32 ft 19 kts 168°
2026-05-05 16:01 -33.94716 151.17419 31 ft 21 kts 168°
2026-05-05 16:01 -33.94870 151.17459 31 ft 24 kts 168°
2026-05-05 16:01 -33.95033 151.17500 26 ft 23 kts 168°
2026-05-05 16:01 -33.95188 151.17540 29 ft 19 kts 167°
2026-05-05 16:02 -33.95321 151.17576 27 ft 19 kts 168°
2026-05-05 16:02 -33.95447 151.17607 26 ft 18 kts 167°
2026-05-05 16:02 -33.95569 151.17639 28 ft 18 kts 168°
2026-05-05 16:02 -33.95683 151.17668 30 ft 16 kts 167°
2026-05-05 16:03 -33.95800 151.17700 29 ft 19 kts 168°
2026-05-05 16:03 -33.95936 151.17734 28 ft 21 kts 167°
2026-05-05 16:03 -33.96078 151.17771 30 ft 21 kts 168°
2026-05-05 16:03 -33.96224 151.17809 28 ft 22 kts 167°
2026-05-05 16:04 -33.96368 151.17847 29 ft 20 kts 168°
2026-05-05 16:04 -33.96440 151.17928 30 ft 14 kts 90°
2026-05-05 16:04 -33.96424 151.18038 30 ft 12 kts 73°
2026-05-05 16:04 -33.96390 151.18054 30 ft 4 kts 347°
2026-05-05 16:05 -33.96358 151.18046 30 ft 11 kts 347°
2026-05-05 16:05 -33.96069 151.17968 28 ft 74 kts 348°
2026-05-05 16:05 -33.95386 151.17789 29 ft 126 kts 348°
2026-05-05 16:05 -33.94372 151.17521 37 ft 171 kts 347°
2026-05-05 16:06 -33.93196 151.17205 596 ft 171 kts 346°
2026-05-05 16:06 -33.92019 151.16899 1126 ft 180 kts 347°
2026-05-05 16:06 -33.90726 151.16561 1340 ft 200 kts 347°
2026-05-05 16:06 -33.89276 151.16200 1486 ft 220 kts 350°
2026-05-05 16:07 -33.87689 151.16296 1603 ft 243 kts
2026-05-05 16:07 -33.85995 151.15943 1890 ft 257 kts 330°
2026-05-05 16:07 -33.84732 151.14435 2416 ft 260 kts 300°
2026-05-05 16:07 -33.83836 151.12531 2965 ft 264 kts 300°
2026-05-05 16:08 -33.82852 151.10654 3512 ft 268 kts 305°
2026-05-05 16:08 -33.81757 151.08834 4108 ft 269 kts 308°
2026-05-05 16:08 -33.80600 151.07056 4712 ft 270 kts 309°
2026-05-05 16:08 -33.79413 151.05308 5314 ft 271 kts 310°
2026-05-05 16:09 -33.78201 151.03564 5947 ft 271 kts 310°
2026-05-05 16:09 -33.76984 151.01833 6595 ft 271 kts 310°
2026-05-05 16:09 -33.75763 151.00110 7197 ft 272 kts 310°
2026-05-05 16:09 -33.74534 150.98382 7797 ft 274 kts 310°
2026-05-05 16:10 -33.73288 150.96632 8423 ft 275 kts 310°
2026-05-05 16:10 -33.72042 150.94885 9058 ft 277 kts 310°
2026-05-05 16:10 -33.70783 150.93124 9681 ft 279 kts 310°
2026-05-05 16:10 -33.69517 150.91353 10272 ft 281 kts 310°
2026-05-05 16:11 -33.68219 150.89539 10605 ft 293 kts 310°
2026-05-05 16:11 -33.63927 150.83546 11300 ft 337 kts 310°
2026-05-05 16:12 -33.62366 150.81369 11542 ft 350 kts 310°
2026-05-05 16:12 -33.59046 150.76853 12145 ft 369 kts 313°
2026-05-05 16:13 -33.54112 150.71050 13461 ft 377 kts 316°
2026-05-05 16:13 -33.51552 150.68144 14108 ft 381 kts 316°
2026-05-05 16:13 -33.50279 150.66695 14390 ft 382 kts 315°
2026-05-05 16:14 -33.46428 150.62275 15345 ft 386 kts 315°
2026-05-05 16:14 -33.42542 150.57789 16307 ft 390 kts 315°
2026-05-05 16:15 -33.38614 150.53260 17299 ft 394 kts 315°
2026-05-05 16:15 -33.34648 150.48691 18272 ft 398 kts 315°
2026-05-05 16:16 -33.30641 150.44070 19144 ft 402 kts 315°
2026-05-05 16:16 -33.26593 150.39413 19970 ft 406 kts 315°
2026-05-05 16:17 -33.22496 150.34710 20842 ft 410 kts 315°
2026-05-05 16:17 -33.20436 150.32346 21288 ft 411 kts 315°
2026-05-05 16:18 -33.16291 150.27599 22163 ft 416 kts 315°
2026-05-05 16:18 -33.14191 150.25197 22620 ft 418 kts 314°
2026-05-05 16:18 -33.09972 150.20378 23487 ft 422 kts 314°
2026-05-05 16:19 -33.07851 150.17955 23928 ft 424 kts 314°
2026-05-05 16:19 -33.05722 150.15525 24313 ft 425 kts 314°
2026-05-05 16:19 -33.01455 150.10659 25072 ft 428 kts 314°
2026-05-05 16:20 -32.97118 150.05723 25834 ft 430 kts 314°
2026-05-05 16:20 -32.92797 150.00815 26568 ft 433 kts 315°
2026-05-05 16:21 -32.88425 149.95863 27290 ft 435 kts 314°
2026-05-05 16:22 -32.81790 149.88336 28352 ft 440 kts 314°
2026-05-05 16:22 -32.77346 149.83309 29037 ft 442 kts 314°
2026-05-05 16:23 -32.72874 149.78253 29640 ft 445 kts 314°
2026-05-05 16:23 -32.70623 149.75712 29958 ft 446 kts 314°
2026-05-05 16:23 -32.66106 149.70627 30496 ft 449 kts 314°
2026-05-05 16:24 -32.63837 149.68076 30788 ft 448 kts 314°
2026-05-05 16:24 -32.61593 149.65555 31191 ft 445 kts 314°
2026-05-05 16:24 -32.57115 149.60507 31855 ft 442 kts 313°
2026-05-05 16:25 -32.55050 149.57813 32151 ft 439 kts 308°
2026-05-05 16:25 -32.51157 149.52269 32740 ft 436 kts 307°
2026-05-05 16:25 -32.49267 149.49525 33012 ft 435 kts 307°
2026-05-05 16:26 -32.45434 149.43947 33573 ft 432 kts 307°
2026-05-05 16:26 -32.41671 149.38493 34113 ft 430 kts 307°
2026-05-05 16:27 -32.37836 149.32955 34214 ft 436 kts 307°
2026-05-05 16:27 -32.34004 149.27431 34216 ft 436 kts 308°
2026-05-05 16:28 -32.30162 149.21909 34216 ft 435 kts 308°
2026-05-05 16:28 -32.26312 149.16380 34212 ft 435 kts 308°
2026-05-05 16:29 -32.22464 149.10859 34216 ft 435 kts 308°
2026-05-05 16:29 -32.18625 149.05367 34217 ft 434 kts 308°
2026-05-05 16:30 -32.14778 148.99867 34234 ft 435 kts 308°
2026-05-05 16:30 -32.10811 148.94371 34212 ft 445 kts 313°
2026-05-05 16:31 -32.05868 148.89868 34210 ft 456 kts 328°
2026-05-05 16:31 -31.99875 148.87290 34209 ft 464 kts 345°
2026-05-05 16:32 -31.93407 148.86545 34204 ft 469 kts 352°
2026-05-05 16:32 -31.86879 148.86143 34206 ft 470 kts 352°
2026-05-05 16:33 -31.80366 148.85737 34206 ft 469 kts 352°
2026-05-05 16:33 -31.73849 148.85286 34199 ft 468 kts 351°
2026-05-05 16:34 -31.67350 148.84817 34196 ft 468 kts 351°
2026-05-05 16:34 -31.60885 148.84350 34201 ft 468 kts 351°
2026-05-05 16:35 -31.54398 148.83884 34200 ft 468 kts 351°
2026-05-05 16:35 -31.47898 148.83419 34194 ft 467 kts 351°
2026-05-05 16:36 -31.41424 148.82956 34191 ft 467 kts 351°
2026-05-05 16:36 -31.34927 148.82493 34188 ft 467 kts 351°
2026-05-05 16:37 -31.28456 148.82032 34186 ft 466 kts 351°
2026-05-05 16:37 -31.21979 148.81571 34185 ft 466 kts 351°
2026-05-05 16:38 -31.15513 148.81111 34178 ft 466 kts 350°
2026-05-05 16:38 -31.09037 148.80652 34182 ft 466 kts 350°
2026-05-05 16:39 -31.02579 148.80195 34181 ft 465 kts 350°
2026-05-05 16:39 -30.96114 148.79748 34178 ft 465 kts 350°
2026-05-05 16:40 -30.89654 148.79285 34174 ft 465 kts 350°
2026-05-05 16:40 -30.83202 148.78824 34171 ft 464 kts 350°
2026-05-05 16:41 -30.76759 148.78369 34173 ft 464 kts 350°
2026-05-05 16:41 -30.70310 148.77912 34172 ft 464 kts 349°
2026-05-05 16:42 -30.63871 148.77457 34168 ft 464 kts 350°
2026-05-05 16:42 -30.57469 148.77010 34172 ft 464 kts 349°
2026-05-05 16:43 -30.50991 148.76557 34169 ft 464 kts 349°
2026-05-05 16:43 -30.44585 148.76110 34171 ft 463 kts 349°
2026-05-05 16:44 -30.38151 148.75660 34165 ft 463 kts 349°
2026-05-05 16:44 -30.31717 148.75210 34165 ft 463 kts 349°
2026-05-05 16:45 -30.25250 148.74759 34166 ft 463 kts 349°
2026-05-05 16:45 -30.18861 148.74314 34170 ft 463 kts 349°
2026-05-05 16:46 -30.12439 148.73867 34164 ft 463 kts 349°
2026-05-05 16:46 -30.05976 148.73418 34170 ft 462 kts 349°
2026-05-05 16:47 -29.99553 148.72971 34157 ft 462 kts 349°
2026-05-05 16:47 -29.93166 148.72530 34162 ft 462 kts 349°
2026-05-05 16:48 -29.86757 148.72086 34157 ft 462 kts 349°
2026-05-05 16:48 -29.80340 148.71643 34162 ft 462 kts 349°
2026-05-05 16:49 -29.73926 148.71200 34163 ft 462 kts 349°
2026-05-05 16:49 -29.67516 148.70758 34158 ft 462 kts 349°
2026-05-05 16:50 -29.61095 148.70315 34161 ft 462 kts 349°
2026-05-05 16:50 -29.54680 148.69874 34161 ft 462 kts 349°
2026-05-05 16:51 -29.48273 148.69435 34159 ft 462 kts 349°
2026-05-05 16:51 -29.41856 148.68995 34156 ft 462 kts 349°
2026-05-05 16:52 -29.35438 148.68555 34159 ft 462 kts 349°
2026-05-05 16:52 -29.29018 148.68116 34157 ft 462 kts 349°
2026-05-05 16:53 -29.22614 148.67678 34161 ft 462 kts 349°
2026-05-05 16:53 -29.16237 148.67243 34155 ft 462 kts 349°
2026-05-05 16:54 -29.09815 148.66805 34150 ft 462 kts 349°
2026-05-05 16:54 -29.03393 148.66369 34154 ft 462 kts 349°
2026-05-05 16:55 -28.96975 148.65942 34155 ft 462 kts 349°
2026-05-05 16:55 -28.90562 148.65501 34153 ft 462 kts 349°
2026-05-05 16:56 -28.84141 148.65061 34158 ft 462 kts 349°
2026-05-05 16:56 -28.77720 148.64625 34158 ft 462 kts 350°
2026-05-05 16:57 -28.71301 148.64191 34159 ft 462 kts 350°
2026-05-05 16:57 -28.64884 148.63757 34158 ft 462 kts 350°
2026-05-05 16:58 -28.58468 148.63324 34156 ft 462 kts 350°
2026-05-05 16:58 -28.52039 148.62891 34152 ft 462 kts 350°
2026-05-05 16:59 -28.46693 148.62531 34155 ft 462 kts 350°
2026-05-05 16:59 -28.40277 148.62099 34154 ft 462 kts 350°
2026-05-05 17:00 -28.33856 148.61668 34155 ft 462 kts 350°
2026-05-05 17:00 -28.27423 148.61236 34153 ft 462 kts 350°
2026-05-05 17:01 -28.21009 148.60806 34156 ft 462 kts 350°
2026-05-05 17:01 -28.14578 148.60376 34155 ft 462 kts 350°
2026-05-05 17:02 -28.08161 148.59947 34156 ft 462 kts 350°
2026-05-05 17:02 -28.01745 148.59517 34160 ft 462 kts 350°
2026-05-05 17:03 -27.95316 148.59086 34151 ft 462 kts 350°
2026-05-05 17:03 -27.88903 148.58661 34151 ft 462 kts 350°
2026-05-05 17:04 -27.82469 148.58234 34153 ft 462 kts 349°
2026-05-05 17:04 -27.76042 148.57808 34152 ft 462 kts 349°
2026-05-05 17:05 -27.69633 148.57382 34148 ft 462 kts 349°
2026-05-05 17:05 -27.63212 148.56956 34151 ft 462 kts 349°
2026-05-05 17:06 -27.56780 148.56530 34145 ft 463 kts 349°
2026-05-05 17:06 -27.50346 148.56105 34143 ft 463 kts 349°
2026-05-05 17:07 -27.43908 148.55680 34147 ft 463 kts 349°
2026-05-05 17:07 -27.37483 148.55256 34154 ft 463 kts 349°
2026-05-05 17:08 -27.31093 148.54835 34139 ft 463 kts 349°
2026-05-05 17:08 -27.24606 148.54408 34141 ft 463 kts 349°
2026-05-05 17:09 -27.18221 148.53988 34141 ft 463 kts 349°
2026-05-05 17:09 -27.11776 148.53564 34141 ft 463 kts 349°
2026-05-05 17:10 -27.05341 148.53143 34134 ft 463 kts 349°
2026-05-05 17:10 -26.98915 148.52723 34129 ft 463 kts 349°
2026-05-05 17:11 -26.92463 148.52301 34128 ft 464 kts 349°
2026-05-05 17:11 -26.86035 148.51881 34127 ft 464 kts 349°
2026-05-05 17:12 -26.79578 148.51459 34130 ft 464 kts 349°
2026-05-05 17:12 -26.73130 148.51038 34128 ft 464 kts 349°
2026-05-05 17:13 -26.66684 148.50617 34124 ft 464 kts 349°
2026-05-05 17:13 -26.60233 148.50197 34123 ft 464 kts 349°
2026-05-05 17:14 -26.53798 148.49778 34129 ft 464 kts 348°
2026-05-05 17:14 -26.47376 148.49361 34128 ft 464 kts 348°
2026-05-05 17:15 -26.40882 148.48940 34128 ft 464 kts 348°
2026-05-05 17:15 -26.34482 148.48526 34127 ft 464 kts 348°
2026-05-05 17:16 -26.28034 148.48109 34123 ft 464 kts 348°
2026-05-05 17:16 -26.21586 148.47692 34124 ft 464 kts 348°
2026-05-05 17:17 -26.15147 148.47277 34126 ft 464 kts 348°
2026-05-05 17:17 -26.08701 148.46861 34130 ft 464 kts 348°
2026-05-05 17:18 -26.02203 148.46765 34120 ft 475 kts 357°
2026-05-05 17:18 -25.95624 148.47923 34124 ft 481 kts
2026-05-05 17:19 -25.89034 148.49320 34123 ft 482 kts
2026-05-05 17:19 -25.82439 148.50732 34122 ft 482 kts
2026-05-05 17:20 -25.75857 148.52116 34120 ft 482 kts
2026-05-05 17:20 -25.69265 148.53486 34120 ft 482 kts
2026-05-05 17:21 -25.62677 148.54852 34120 ft 482 kts
2026-05-05 17:22 -25.52786 148.56903 34115 ft 482 kts
2026-05-05 17:22 -25.46241 148.58257 34114 ft 482 kts
2026-05-05 17:23 -25.39619 148.59627 34113 ft 482 kts
2026-05-05 17:24 -25.26725 148.62290 34106 ft 483 kts
2026-05-05 17:24 -25.20157 148.63645 34103 ft 483 kts
2026-05-05 17:25 -25.13513 148.65013 34099 ft 483 kts
2026-05-05 17:25 -25.06898 148.66373 34095 ft 484 kts
2026-05-05 17:26 -25.00282 148.67733 34092 ft 484 kts
2026-05-05 17:26 -24.93642 148.69096 34089 ft 485 kts
2026-05-05 17:27 -24.87013 148.70455 34081 ft 485 kts
2026-05-05 17:27 -24.80364 148.71817 34082 ft 485 kts
2026-05-05 17:28 -24.73767 148.73167 34080 ft 486 kts
2026-05-05 17:28 -24.67126 148.74524 34078 ft 486 kts
2026-05-05 17:29 -24.60419 148.75893 34082 ft 487 kts
2026-05-05 17:29 -24.53809 148.77241 34074 ft 487 kts
2026-05-05 17:30 -24.47133 148.78602 34074 ft 487 kts
2026-05-05 17:30 -24.40458 148.79960 34074 ft 488 kts
2026-05-05 17:31 -24.33779 148.81318 34072 ft 488 kts
2026-05-05 17:31 -24.27095 148.82674 34073 ft 489 kts
2026-05-05 17:32 -24.19818 148.84151 34070 ft 489 kts
2026-05-05 17:32 -24.13130 148.85506 34070 ft 489 kts
2026-05-05 17:33 -24.06424 148.86863 34071 ft 490 kts
2026-05-05 17:33 -23.99710 148.88220 34067 ft 490 kts
2026-05-05 17:34 -23.93005 148.89574 34068 ft 491 kts
2026-05-05 17:34 -23.87424 148.90700 34059 ft 491 kts
2026-05-05 17:35 -23.80705 148.92054 34061 ft 491 kts
2026-05-05 17:35 -23.73981 148.93408 34052 ft 492 kts
2026-05-05 17:36 -23.67239 148.94765 34059 ft 492 kts
2026-05-05 17:36 -23.60513 148.96117 34050 ft 492 kts
2026-05-05 17:37 -23.52685 148.97687 34048 ft 492 kts
2026-05-05 17:37 -23.45951 148.99037 34048 ft 493 kts
2026-05-05 17:38 -23.40300 149.00168 34046 ft 493 kts
2026-05-05 17:38 -23.33559 149.01517 34043 ft 493 kts
2026-05-05 17:39 -23.26810 149.02867 34041 ft 493 kts
2026-05-05 17:39 -23.20052 149.04217 34045 ft 493 kts
2026-05-05 17:40 -23.13303 149.05563 34044 ft 493 kts
2026-05-05 17:40 -23.06566 149.06905 34041 ft 493 kts
2026-05-05 17:41 -22.99809 149.08250 34039 ft 493 kts
2026-05-05 17:41 -22.93107 149.09582 34040 ft 493 kts
2026-05-05 17:42 -22.86370 149.10922 34042 ft 493 kts
2026-05-05 17:42 -22.79658 149.11751 34043 ft 478 kts 350°
2026-05-05 17:43 -22.73031 149.11550 34038 ft 475 kts 349°
2026-05-05 17:43 -22.66436 149.11212 34035 ft 475 kts 348°
2026-05-05 17:44 -22.59832 149.10872 34035 ft 475 kts 349°
2026-05-05 17:44 -22.53237 149.10552 34039 ft 475 kts 349°
2026-05-05 17:45 -22.46614 149.10240 34032 ft 475 kts 349°
2026-05-05 17:45 -22.40019 149.09929 34038 ft 475 kts 349°
2026-05-05 17:46 -22.33401 149.09618 34031 ft 475 kts 349°
2026-05-05 17:46 -22.26796 149.09306 34032 ft 475 kts 349°
2026-05-05 17:47 -22.20189 149.08995 34033 ft 475 kts 349°
2026-05-05 17:47 -22.13582 149.08684 34029 ft 475 kts 349°
2026-05-05 17:48 -22.06978 149.08373 34033 ft 475 kts 349°
2026-05-05 17:48 -22.00371 149.08062 34031 ft 475 kts 349°
2026-05-05 17:49 -21.93779 149.07755 34037 ft 475 kts 349°
2026-05-05 17:49 -21.87168 149.07445 34024 ft 474 kts 349°
2026-05-05 17:50 -21.80619 149.07138 34029 ft 474 kts 349°
2026-05-05 17:50 -21.74036 149.06829 34028 ft 474 kts 349°
2026-05-05 17:51 -21.67450 149.06483 34028 ft 473 kts 348°
2026-05-05 17:51 -21.60913 149.05924 34022 ft 471 kts 347°
2026-05-05 17:52 -21.54386 149.05333 34021 ft 471 kts 347°
2026-05-05 17:52 -21.47838 149.04775 34020 ft 471 kts 348°
2026-05-05 17:53 -21.41297 149.04240 34014 ft 471 kts 348°
2026-05-05 17:53 -21.34760 149.03705 34013 ft 471 kts 348°
2026-05-05 17:54 -21.28215 149.03168 34012 ft 472 kts 348°
2026-05-05 17:54 -21.21679 149.02632 34007 ft 472 kts 348°
2026-05-05 17:55 -21.15130 149.02096 34004 ft 472 kts 348°
2026-05-05 17:55 -21.08573 149.01560 34001 ft 472 kts 348°
2026-05-05 17:56 -21.02015 149.01025 34002 ft 473 kts 348°
2026-05-05 17:56 -20.95449 149.00490 34000 ft 473 kts 348°
2026-05-05 17:57 -20.88896 148.99955 34000 ft 473 kts 348°
2026-05-05 17:57 -20.82324 148.99420 34002 ft 473 kts 348°
2026-05-05 17:58 -20.75762 148.98886 33990 ft 473 kts 348°
2026-05-05 17:58 -20.69192 148.98352 33991 ft 473 kts 348°
2026-05-05 17:59 -20.62630 148.97819 33992 ft 473 kts 348°
2026-05-05 17:59 -20.56062 148.97286 33995 ft 474 kts 348°
2026-05-05 18:00 -20.49491 148.96753 33987 ft 473 kts 348°
2026-05-05 18:00 -20.42911 148.96220 33984 ft 474 kts 348°
2026-05-05 18:01 -20.36336 148.95688 33996 ft 474 kts 348°
2026-05-05 18:01 -20.29856 148.94964 33995 ft 469 kts 343°
2026-05-05 18:02 -20.23447 148.93763 33989 ft 467 kts 342°
2026-05-05 18:02 -20.17039 148.92559 33989 ft 468 kts 343°
2026-05-05 18:03 -20.10626 148.91439 33986 ft 468 kts 343°
2026-05-05 18:03 -20.04172 148.90352 33976 ft 469 kts 343°
2026-05-05 18:04 -19.97730 148.89273 33973 ft 469 kts 343°
2026-05-05 18:04 -19.91286 148.88190 33979 ft 469 kts 343°
2026-05-05 18:05 -19.84838 148.87105 33979 ft 469 kts 343°
2026-05-05 18:05 -19.78386 148.86019 33973 ft 470 kts 343°
2026-05-05 18:06 -19.71932 148.84934 33971 ft 470 kts 343°
2026-05-05 18:06 -19.65463 148.83848 33969 ft 471 kts 343°
2026-05-05 18:07 -19.58987 148.82762 33975 ft 471 kts 343°
2026-05-05 18:07 -19.52505 148.81675 33973 ft 471 kts 343°
2026-05-05 18:08 -19.46029 148.80591 33966 ft 472 kts 344°
2026-05-05 18:08 -19.39551 148.79506 33966 ft 472 kts 344°
2026-05-05 18:09 -19.33040 148.78418 33963 ft 473 kts 344°
2026-05-05 18:09 -19.26533 148.77331 33967 ft 473 kts 344°
2026-05-05 18:10 -19.20023 148.76245 33965 ft 474 kts 344°
2026-05-05 18:10 -19.13502 148.75157 33965 ft 474 kts 344°
2026-05-05 18:11 -19.06988 148.74071 33965 ft 475 kts 344°
2026-05-05 18:11 -19.00501 148.72990 33962 ft 475 kts 344°
2026-05-05 18:12 -18.93978 148.71905 33962 ft 475 kts 344°
2026-05-05 18:12 -18.87443 148.70818 33960 ft 476 kts 345°
2026-05-05 18:13 -18.80910 148.69732 33959 ft 476 kts 345°
2026-05-05 18:13 -18.74346 148.68643 33958 ft 477 kts 345°
2026-05-05 18:14 -18.67796 148.67556 33959 ft 477 kts 345°
2026-05-05 18:14 -18.61240 148.66470 33953 ft 477 kts 345°
2026-05-05 18:15 -18.54667 148.65382 33954 ft 478 kts 345°
2026-05-05 18:15 -18.48105 148.64296 33954 ft 478 kts 345°
2026-05-05 18:16 -18.41529 148.63208 33957 ft 478 kts 345°
2026-05-05 18:16 -18.34964 148.62124 33953 ft 478 kts 345°
2026-05-05 18:17 -18.28378 148.61037 33950 ft 478 kts 345°
2026-05-05 18:17 -18.21804 148.59952 33951 ft 479 kts 345°
2026-05-05 18:18 -18.15221 148.58867 33948 ft 479 kts 345°
2026-05-05 18:18 -18.08648 148.57784 33949 ft 479 kts 345°
2026-05-05 18:19 -18.02058 148.56700 33948 ft 479 kts 345°
2026-05-05 18:19 -17.95465 148.55615 33946 ft 479 kts 345°
2026-05-05 18:20 -17.88917 148.54539 33947 ft 479 kts 346°
2026-05-05 18:20 -17.82289 148.53451 33945 ft 479 kts 346°
2026-05-05 18:21 -17.76816 148.52552 33945 ft 479 kts 346°
2026-05-05 18:21 -17.69113 148.51289 33942 ft 479 kts 346°
2026-05-05 18:22 -17.63635 148.50391 33938 ft 479 kts 346°
2026-05-05 18:22 -17.55981 148.49138 33942 ft 479 kts 346°
2026-05-05 18:23 -17.49392 148.48060 33939 ft 479 kts 346°
2026-05-05 18:23 -17.43877 148.47158 33940 ft 479 kts 346°
2026-05-05 18:24 -17.37335 148.46089 33937 ft 479 kts 346°
2026-05-05 18:24 -17.30707 148.45006 33939 ft 479 kts 346°
2026-05-05 18:25 -17.24157 148.43938 33938 ft 479 kts 346°
2026-05-05 18:25 -17.17581 148.42865 33937 ft 479 kts 346°
2026-05-05 18:26 -17.11000 148.41793 33939 ft 479 kts 346°
2026-05-05 18:26 -17.04422 148.40722 33937 ft 479 kts 346°
2026-05-05 18:27 -16.97844 148.39652 33939 ft 479 kts 346°
2026-05-05 18:27 -16.91253 148.38580 33930 ft 479 kts 346°
2026-05-05 18:28 -16.81379 148.36976 33928 ft 478 kts 346°
2026-05-05 18:28 -16.74798 148.35908 33935 ft 479 kts 346°
2026-05-05 18:29 -16.68217 148.34841 33925 ft 479 kts 346°
2026-05-05 18:29 -16.61627 148.33773 33929 ft 479 kts 346°
2026-05-05 18:30 -16.55042 148.32707 33926 ft 480 kts 346°
2026-05-05 18:30 -16.48437 148.31638 33927 ft 480 kts 346°
2026-05-05 18:31 -16.41832 148.30570 33928 ft 480 kts 346°
2026-05-05 18:31 -16.35230 148.29502 33928 ft 481 kts 346°
2026-05-05 18:32 -16.28617 148.28434 33931 ft 481 kts 346°
2026-05-05 18:32 -16.22004 148.27367 33922 ft 482 kts 346°
2026-05-05 18:33 -16.15404 148.26302 33929 ft 482 kts 346°
2026-05-05 18:33 -16.08771 148.25233 33927 ft 483 kts 346°
2026-05-05 18:34 -16.02133 148.24164 33918 ft 483 kts 346°
2026-05-05 18:34 -15.95482 148.23094 33925 ft 484 kts 346°
2026-05-05 18:35 -15.88840 148.22026 33927 ft 484 kts 346°
2026-05-05 18:35 -15.82184 148.20956 33924 ft 484 kts 346°
2026-05-05 18:36 -15.75517 148.19885 33923 ft 485 kts 346°
2026-05-05 18:36 -15.68852 148.18815 33921 ft 485 kts 346°
2026-05-05 18:37 -15.62171 148.17747 33922 ft 486 kts 346°
2026-05-05 18:37 -15.55491 148.16676 33917 ft 486 kts 347°
2026-05-05 18:38 -15.48799 148.15603 33915 ft 487 kts 347°
2026-05-05 18:38 -15.42094 148.14531 33916 ft 487 kts 347°
2026-05-05 18:39 -15.35393 148.13459 33918 ft 488 kts 347°
2026-05-05 18:39 -15.28677 148.12387 33911 ft 488 kts 347°
2026-05-05 18:40 -15.21962 148.11315 33914 ft 488 kts 347°
2026-05-05 18:40 -15.15253 148.10245 33915 ft 488 kts 347°
2026-05-05 18:41 -15.08537 148.09174 33913 ft 489 kts 347°
2026-05-05 18:41 -15.01812 148.08102 33913 ft 488 kts 347°
2026-05-05 18:42 -14.95086 148.07031 33911 ft 488 kts 347°
2026-05-05 18:42 -14.88380 148.05964 33911 ft 488 kts 347°
2026-05-05 18:43 -14.81725 148.04906 33910 ft 488 kts 347°
2026-05-05 18:43 -14.75007 148.03838 33909 ft 487 kts 347°
2026-05-05 18:44 -14.68305 148.02774 33911 ft 487 kts 347°
2026-05-05 18:44 -14.61602 148.01709 33911 ft 488 kts 347°
2026-05-05 18:45 -14.54892 148.00645 33910 ft 488 kts 348°
2026-05-05 18:45 -14.48175 147.99580 33911 ft 488 kts 348°
2026-05-05 18:46 -14.41475 147.98518 33910 ft 488 kts 348°
2026-05-05 18:46 -14.34749 147.97453 33911 ft 488 kts 348°
2026-05-05 18:47 -14.28035 147.96391 33911 ft 488 kts 348°
2026-05-05 18:47 -14.21322 147.95329 33909 ft 489 kts 348°
2026-05-05 18:48 -14.14605 147.94268 33908 ft 489 kts 348°
2026-05-05 18:48 -14.07884 147.93206 33910 ft 489 kts 348°
2026-05-05 18:49 -14.01152 147.92143 33908 ft 489 kts 348°
2026-05-05 18:49 -13.94426 147.91082 33907 ft 489 kts 348°
2026-05-05 18:50 -13.87693 147.90020 33910 ft 489 kts 348°
2026-05-05 18:50 -13.81008 147.88967 33909 ft 489 kts 348°
2026-05-05 18:51 -13.74274 147.87906 33905 ft 490 kts 348°
2026-05-05 18:51 -13.67543 147.86847 33907 ft 490 kts 348°
2026-05-05 18:52 -13.60806 147.85787 33903 ft 490 kts 349°
2026-05-05 18:52 -13.54060 147.84726 33908 ft 490 kts 349°
2026-05-05 18:53 -13.47313 147.83666 33908 ft 490 kts 349°
2026-05-05 18:53 -13.40567 147.82607 33907 ft 491 kts 349°
2026-05-05 18:54 -13.33812 147.81547 33902 ft 491 kts 349°
2026-05-05 18:54 -13.27017 147.80481 33906 ft 491 kts 349°
2026-05-05 18:55 -13.20319 147.79431 33902 ft 491 kts 349°
2026-05-05 18:55 -13.13549 147.78370 33905 ft 491 kts 349°
2026-05-05 18:56 -13.06785 147.77310 33901 ft 492 kts 349°
2026-05-05 18:56 -13.00028 147.76253 33900 ft 492 kts 349°
2026-05-05 18:57 -12.93257 147.75194 33900 ft 492 kts 349°
2026-05-05 18:57 -12.86496 147.74136 33909 ft 492 kts 349°
2026-05-05 18:58 -12.79741 147.73081 33893 ft 491 kts 349°
2026-05-05 18:58 -12.72983 147.72025 33910 ft 491 kts 350°
2026-05-05 18:59 -12.66224 147.70970 33892 ft 491 kts 350°
2026-05-05 18:59 -12.59468 147.69917 33899 ft 491 kts 350°
2026-05-05 19:00 -12.52713 147.68863 33904 ft 491 kts 350°
2026-05-05 19:00 -12.46002 147.67818 33887 ft 491 kts 350°
2026-05-05 19:01 -12.39211 147.66760 33889 ft 490 kts 350°
2026-05-05 19:01 -12.32518 147.65718 33905 ft 490 kts 350°
2026-05-05 19:02 -12.25777 147.64670 33885 ft 490 kts 350°
2026-05-05 19:02 -12.18981 147.63613 33889 ft 491 kts 350°
2026-05-05 19:03 -12.12273 147.62570 33898 ft 491 kts 350°
2026-05-05 19:03 -12.05521 147.61522 33883 ft 491 kts 350°
2026-05-05 19:04 -11.98772 147.60476 33896 ft 491 kts 350°
2026-05-05 19:04 -11.92011 147.59429 33892 ft 491 kts 350°
2026-05-05 19:05 -11.85260 147.58380 33896 ft 491 kts 350°
2026-05-05 19:05 -11.78500 147.57332 33899 ft 491 kts 350°
2026-05-05 19:06 -11.71748 147.56286 33877 ft 491 kts 350°
2026-05-05 19:06 -11.65016 147.55244 33880 ft 491 kts 350°
2026-05-05 19:07 -11.59395 147.54375 33876 ft 490 kts 350°
2026-05-05 19:07 -11.51507 147.53155 33892 ft 490 kts 350°
2026-05-05 19:08 -11.44767 147.52113 33875 ft 490 kts 350°
2026-05-05 19:08 -11.38011 147.51069 33896 ft 490 kts 350°
2026-05-05 19:09 -11.31276 147.50029 33894 ft 490 kts 350°
2026-05-05 19:09 -11.25662 147.49163 33893 ft 490 kts 350°
2026-05-05 19:10 -11.18928 147.48124 33890 ft 491 kts 350°
2026-05-05 19:10 -11.12166 147.47081 33870 ft 492 kts 350°
2026-05-05 19:11 -11.05398 147.46038 33888 ft 492 kts 350°
2026-05-05 19:11 -10.98627 147.44996 33882 ft 493 kts 350°
2026-05-05 19:12 -10.91837 147.43950 33879 ft 493 kts 350°
2026-05-05 19:12 -10.85052 147.42905 33877 ft 493 kts 350°
2026-05-05 19:13 -10.78263 147.41862 33877 ft 493 kts 350°
2026-05-05 19:13 -10.71524 147.40827 33875 ft 493 kts 350°
2026-05-05 19:14 -10.64706 147.39776 33872 ft 493 kts 350°
2026-05-05 19:14 -10.57962 147.38739 33876 ft 493 kts 350°
2026-05-05 19:15 -10.51189 147.37700 33874 ft 493 kts 350°
2026-05-05 19:15 -10.44413 147.36658 33871 ft 492 kts 351°
2026-05-05 19:16 -10.37650 147.35618 33875 ft 492 kts 351°
2026-05-05 19:16 -10.30870 147.34580 33870 ft 492 kts 351°
2026-05-05 19:17 -10.24092 147.33544 33874 ft 493 kts 351°
2026-05-05 19:17 -10.17320 147.32506 33870 ft 493 kts 351°
2026-05-05 19:18 -10.10534 147.31467 33872 ft 493 kts 351°
2026-05-05 19:18 -10.03758 147.30430 33869 ft 492 kts 351°
2026-05-05 19:19 -9.96982 147.29391 33870 ft 492 kts 351°
2026-05-05 19:19 -9.90219 147.28358 33870 ft 492 kts 351°
2026-05-05 19:20 -9.83450 147.27323 33866 ft 492 kts 351°
2026-05-05 19:20 -9.76687 147.26290 33864 ft 493 kts 351°
2026-05-05 19:21 -9.69896 147.25252 33869 ft 493 kts 351°
2026-05-05 19:21 -9.63145 147.24220 33862 ft 493 kts 351°
2026-05-05 19:22 -9.56348 147.23183 33871 ft 494 kts 351°
2026-05-05 19:22 -9.49558 147.22149 33868 ft 494 kts 351°
2026-05-05 19:23 -9.42754 147.21103 33870 ft 495 kts 350°
2026-05-05 19:23 -9.35946 147.19907 33871 ft 497 kts 349°
2026-05-05 19:24 -9.29138 147.18661 33861 ft 498 kts 349°
2026-05-05 19:24 -9.22316 147.17436 33867 ft 498 kts 349°
2026-05-05 19:25 -9.15480 147.16227 33870 ft 499 kts 349°
2026-05-05 19:25 -9.08637 147.15022 33881 ft 499 kts 349°
2026-05-05 19:26 -9.01813 147.13820 33891 ft 498 kts 349°
2026-05-05 19:26 -8.94992 147.12617 33893 ft 498 kts 349°
2026-05-05 19:27 -8.88207 147.11422 33909 ft 498 kts 349°
2026-05-05 19:27 -8.81386 147.10221 33915 ft 497 kts 349°
2026-05-05 19:28 -8.74582 147.09022 33924 ft 497 kts 349°
2026-05-05 19:28 -8.67777 147.07824 33939 ft 496 kts 349°
2026-05-05 19:29 -8.60970 147.06628 33942 ft 496 kts 349°
2026-05-05 19:29 -8.54176 147.05433 33950 ft 495 kts 349°
2026-05-05 19:30 -8.47397 147.04241 33959 ft 494 kts 349°
2026-05-05 19:30 -8.40631 147.03051 33965 ft 494 kts 349°
2026-05-05 19:31 -8.33856 147.01861 33974 ft 495 kts 350°
2026-05-05 19:31 -8.27069 147.00669 33973 ft 495 kts 350°
2026-05-05 19:32 -8.20276 146.99476 33986 ft 496 kts 349°
2026-05-05 19:32 -8.13488 146.98285 33983 ft 496 kts 349°
2026-05-05 19:33 -8.06668 146.97088 33986 ft 497 kts 350°
2026-05-05 19:33 -7.99853 146.95893 33992 ft 497 kts 350°
2026-05-05 19:34 -7.93035 146.94697 33988 ft 498 kts 350°
2026-05-05 19:35 -7.82833 146.92909 33981 ft 498 kts 350°
2026-05-05 19:35 -7.75956 146.91705 33985 ft 499 kts 350°
2026-05-05 19:36 -7.69112 146.90507 33981 ft 499 kts 350°
2026-05-05 19:36 -7.62333 146.89320 33976 ft 499 kts 350°
2026-05-05 19:37 -7.55489 146.88122 33982 ft 499 kts 350°
2026-05-05 19:37 -7.48641 146.86924 33975 ft 499 kts 350°
2026-05-05 19:38 -7.41804 146.85728 33972 ft 499 kts 350°
2026-05-05 19:38 -7.34959 146.84531 33968 ft 499 kts 350°
2026-05-05 19:39 -7.28115 146.83335 33966 ft 499 kts 350°
2026-05-05 19:39 -7.21248 146.82135 33966 ft 500 kts 350°
2026-05-05 19:40 -7.14407 146.80940 33957 ft 500 kts 350°
2026-05-05 19:40 -7.07556 146.79744 33948 ft 500 kts 350°
2026-05-05 19:41 -7.00697 146.78547 33944 ft 500 kts 350°
2026-05-05 19:41 -6.93839 146.77350 33936 ft 500 kts 350°
2026-05-05 19:42 -6.86973 146.76153 33933 ft 500 kts 349°
2026-05-05 19:42 -6.80114 146.74956 33925 ft 501 kts 349°
2026-05-05 19:43 -6.73248 146.73759 33929 ft 501 kts 349°
2026-05-05 19:43 -6.66388 146.72564 33932 ft 501 kts 349°
2026-05-05 19:44 -6.59517 146.71367 33933 ft 501 kts 349°
2026-05-05 19:44 -6.52632 146.70285 33945 ft 501 kts 353°
2026-05-05 19:45 -6.45676 146.69746 33955 ft 501 kts 356°
2026-05-05 19:45 -6.38703 146.69276 33963 ft 502 kts 355°
2026-05-05 19:46 -6.31789 146.68723 33969 ft 502 kts 354°
2026-05-05 19:46 -6.24802 146.68117 33980 ft 502 kts 354°
2026-05-05 19:47 -6.17884 146.67509 33987 ft 502 kts 354°
2026-05-05 19:47 -6.10917 146.66900 33984 ft 502 kts 354°
2026-05-05 19:48 -6.03961 146.66294 33976 ft 502 kts 354°
2026-05-05 19:48 -5.97042 146.65693 33964 ft 502 kts 354°
2026-05-05 19:49 -5.90090 146.65089 33947 ft 502 kts 354°
2026-05-05 19:49 -5.83124 146.64483 33929 ft 502 kts 355°
2026-05-05 19:50 -5.76165 146.63879 33909 ft 502 kts 355°
2026-05-05 19:50 -5.69194 146.63274 33898 ft 502 kts 355°
2026-05-05 19:51 -5.62244 146.62670 33885 ft 502 kts 355°
2026-05-05 19:51 -5.55275 146.62065 33867 ft 502 kts 355°
2026-05-05 19:52 -5.48327 146.61462 33863 ft 502 kts 355°
2026-05-05 19:52 -5.41354 146.60857 33853 ft 502 kts 354°
2026-05-05 19:53 -5.34403 146.60254 33857 ft 501 kts 354°
2026-05-05 19:53 -5.27465 146.59653 33846 ft 501 kts 354°
2026-05-05 19:54 -5.20515 146.59050 33852 ft 501 kts 354°
2026-05-05 19:54 -5.13558 146.58447 33847 ft 502 kts 354°
2026-05-05 19:55 -5.06607 146.57845 33852 ft 502 kts 354°
2026-05-05 19:55 -4.99680 146.57244 33850 ft 503 kts 354°
2026-05-05 19:56 -4.92702 146.56640 33850 ft 503 kts 354°
2026-05-05 19:56 -4.85725 146.56035 33852 ft 504 kts 355°
2026-05-05 19:57 -4.78740 146.55430 33852 ft 504 kts 355°
2026-05-05 19:57 -4.72875 146.54922 33857 ft 505 kts 355°
2026-05-05 19:58 -4.65918 146.54320 33848 ft 505 kts 355°
2026-05-05 19:58 -4.58861 146.53710 33852 ft 506 kts 355°
2026-05-05 19:59 -4.51901 146.53108 33852 ft 506 kts 355°
2026-05-05 19:59 -4.44884 146.52500 33852 ft 506 kts 355°
2026-05-05 20:00 -4.37865 146.51893 33848 ft 507 kts 355°
2026-05-05 20:00 -4.30843 146.51286 33855 ft 507 kts 355°
2026-05-05 20:01 -4.23806 146.50678 33855 ft 507 kts 355°
2026-05-05 20:01 -4.16775 146.50070 33851 ft 507 kts 355°
2026-05-05 20:02 -4.09747 146.49462 33849 ft 507 kts 355°
2026-05-05 20:02 -4.02723 146.48855 33852 ft 507 kts 355°
2026-05-05 20:03 -3.95687 146.48247 33850 ft 507 kts 355°
2026-05-05 20:03 -3.88646 146.47639 33850 ft 507 kts 355°
2026-05-05 20:04 -3.81621 146.47032 33849 ft 507 kts 355°
2026-05-05 20:04 -3.74582 146.46424 33850 ft 507 kts 355°
2026-05-05 20:05 -3.67557 146.45818 33853 ft 507 kts 355°
2026-05-05 20:05 -3.60523 146.45211 33854 ft 507 kts 355°
2026-05-05 20:06 -3.53504 146.44605 33850 ft 507 kts 355°
2026-05-05 20:06 -3.46470 146.43998 33852 ft 507 kts 355°
2026-05-05 20:07 -3.39456 146.43392 33855 ft 507 kts 355°
2026-05-05 20:07 -3.32420 146.42785 33854 ft 507 kts 355°
2026-05-05 20:08 -3.25392 146.42179 33852 ft 507 kts 355°
2026-05-05 20:08 -3.18374 146.41574 33851 ft 507 kts 355°
2026-05-05 20:09 -3.11338 146.40967 33849 ft 507 kts 355°
2026-05-05 20:09 -3.04317 146.40361 33855 ft 507 kts 355°
2026-05-05 20:10 -2.97276 146.39754 33853 ft 508 kts 355°
2026-05-05 20:10 -2.90293 146.39152 33850 ft 508 kts 355°
2026-05-05 20:11 -2.83183 146.38539 33853 ft 509 kts 355°
2026-05-05 20:11 -2.76184 146.37936 33853 ft 509 kts 355°
2026-05-05 20:12 -2.69138 146.37328 33850 ft 508 kts 355°
2026-05-05 20:12 -2.62075 146.36719 33853 ft 508 kts 355°
2026-05-05 20:13 -2.55043 146.36113 33852 ft 508 kts 355°
2026-05-05 20:13 -2.48006 146.35507 33848 ft 508 kts 355°
2026-05-05 20:14 -2.40974 146.34901 33851 ft 507 kts 356°
2026-05-05 20:14 -2.33932 146.34294 33851 ft 507 kts 356°
2026-05-05 20:15 -2.26890 146.33688 33852 ft 507 kts 356°
2026-05-05 20:15 -2.19875 146.33084 33849 ft 506 kts 356°
2026-05-05 20:16 -2.12860 146.32479 33850 ft 506 kts 356°
2026-05-05 20:16 -2.05848 146.31876 33850 ft 506 kts 356°
2026-05-05 20:17 -1.98828 146.31271 33852 ft 506 kts 356°
2026-05-05 20:17 -1.91819 146.30668 33849 ft 505 kts 356°
2026-05-05 20:18 -1.84813 146.30065 33846 ft 505 kts 356°
2026-05-05 20:18 -1.77804 146.29462 33844 ft 505 kts 356°
2026-05-05 20:19 -1.70817 146.28860 33846 ft 505 kts 356°
2026-05-05 20:19 -1.63802 146.28257 33848 ft 505 kts 356°
2026-05-05 20:20 -1.56806 146.27655 33851 ft 505 kts 356°
2026-05-05 20:20 -1.49803 146.27052 33850 ft 505 kts 356°
2026-05-05 20:21 -1.42794 146.26449 33850 ft 505 kts 357°
2026-05-05 20:21 -1.35807 146.25848 33848 ft 505 kts 356°
2026-05-05 20:22 -1.28811 146.25246 33851 ft 505 kts 356°
2026-05-05 20:22 -1.21803 146.24644 33852 ft 505 kts 356°
2026-05-05 20:23 -1.14805 146.24042 33851 ft 505 kts 356°
2026-05-05 20:23 -1.07859 146.23444 33844 ft 504 kts 356°
2026-05-05 20:24 -1.00821 146.22839 33850 ft 504 kts 356°
2026-05-05 20:24 -0.93874 146.22241 33849 ft 504 kts 356°
2026-05-05 20:25 -0.86832 146.21636 33851 ft 504 kts 356°
2026-05-05 20:25 -0.79885 146.21038 33854 ft 504 kts 356°
2026-05-05 20:26 -0.72893 146.20437 33849 ft 504 kts 356°
2026-05-05 20:26 -0.65900 146.19836 33848 ft 504 kts 356°
2026-05-05 20:27 -0.58916 146.19235 33846 ft 504 kts 356°
2026-05-05 20:27 -0.51921 146.18634 33847 ft 504 kts 356°
2026-05-05 20:28 -0.44943 146.18033 33843 ft 504 kts 356°
2026-05-05 20:28 -0.37961 146.17433 33845 ft 503 kts 356°
2026-05-05 20:29 -0.30987 146.16833 33849 ft 503 kts 356°
2026-05-05 20:29 -0.24007 146.16233 33846 ft 503 kts 356°
2026-05-05 20:30 -0.17036 146.15634 33848 ft 503 kts 356°
2026-05-05 20:30 -0.10066 146.15035 33846 ft 503 kts 356°
2026-05-05 20:31 -0.03086 146.14379 33845 ft 503 kts 352°
2026-05-05 20:31 0.03603 146.12340 33854 ft 506 kts 336°
2026-05-05 20:32 0.09934 146.09256 33846 ft 507 kts 334°
2026-05-05 20:32 0.16215 146.06048 33845 ft 507 kts 334°
2026-05-05 20:33 0.22497 146.02851 33847 ft 507 kts 334°
2026-05-05 20:33 0.28757 145.99690 33845 ft 507 kts 334°
2026-05-05 20:34 0.35091 145.96501 33849 ft 507 kts 334°
2026-05-05 20:34 0.41341 145.93356 33846 ft 506 kts 334°
2026-05-05 20:35 0.47626 145.90192 33846 ft 507 kts 334°
2026-05-05 20:35 0.53930 145.87017 33845 ft 506 kts 334°
2026-05-05 20:36 0.60213 145.83852 33844 ft 507 kts 334°
2026-05-05 20:36 0.66518 145.80677 33846 ft 507 kts 334°
2026-05-05 20:37 0.72807 145.77510 33847 ft 507 kts 334°
2026-05-05 20:37 0.79099 145.74341 33847 ft 507 kts 334°
2026-05-05 20:38 0.85393 145.71171 33844 ft 507 kts 334°
2026-05-05 20:38 0.91685 145.68002 33846 ft 507 kts 334°
2026-05-05 20:39 0.97988 145.64827 33846 ft 507 kts 334°
2026-05-05 20:39 1.04283 145.61655 33845 ft 507 kts 334°
2026-05-05 20:40 1.10576 145.58485 33846 ft 507 kts 334°
2026-05-05 20:40 1.16866 145.55316 33846 ft 507 kts 334°
2026-05-05 20:41 1.23174 145.52137 33844 ft 507 kts 334°
2026-05-05 20:41 1.29468 145.48967 33846 ft 507 kts 334°
2026-05-05 20:42 1.35774 145.45789 33847 ft 507 kts 334°
2026-05-05 20:42 1.41005 145.43153 33846 ft 507 kts 334°
2026-05-05 20:43 1.47304 145.39979 33848 ft 507 kts 334°
2026-05-05 20:43 1.53603 145.36803 33844 ft 507 kts 334°
2026-05-05 20:44 1.59914 145.33623 33847 ft 508 kts 334°
2026-05-05 20:44 1.66228 145.30443 33844 ft 508 kts 334°
2026-05-05 20:45 1.75697 145.25669 33848 ft 508 kts 334°
2026-05-05 20:45 1.81994 145.22495 33847 ft 508 kts 334°
2026-05-05 20:46 1.88299 145.19318 33848 ft 508 kts 334°
2026-05-05 20:46 1.94622 145.16130 33848 ft 508 kts 334°
2026-05-05 20:47 2.00937 145.12945 33847 ft 508 kts 334°
2026-05-05 20:47 2.07213 145.09779 33849 ft 509 kts 334°
2026-05-05 20:48 2.13531 145.06593 33851 ft 509 kts 334°
2026-05-05 20:48 2.19858 145.03402 33849 ft 509 kts 334°
2026-05-05 20:49 2.26174 145.00216 33849 ft 509 kts 334°
2026-05-05 20:49 2.32511 144.97019 33849 ft 509 kts 334°
2026-05-05 20:50 2.38844 144.93824 33846 ft 510 kts 334°
2026-05-05 20:50 2.45185 144.90624 33845 ft 510 kts 334°
2026-05-05 20:51 2.51511 144.87432 33847 ft 510 kts 334°
2026-05-05 20:51 2.57857 144.84229 33851 ft 510 kts 334°
2026-05-05 20:52 2.64192 144.81032 33847 ft 510 kts 334°
2026-05-05 20:52 2.70536 144.77830 33849 ft 511 kts 334°
2026-05-05 20:53 2.76874 144.74631 33845 ft 511 kts 334°
2026-05-05 20:53 2.83187 144.71442 33847 ft 511 kts 334°
2026-05-05 20:54 2.89534 144.68237 33846 ft 511 kts 334°
2026-05-05 20:54 2.95890 144.65028 33848 ft 511 kts 334°
2026-05-05 20:55 3.02239 144.61819 33845 ft 511 kts 334°
2026-05-05 20:55 3.08584 144.58615 33846 ft 511 kts 334°
2026-05-05 20:56 3.14942 144.55402 33845 ft 512 kts 334°
2026-05-05 20:56 3.21297 144.52191 33843 ft 511 kts 334°
2026-05-05 20:57 3.27647 144.48981 33845 ft 511 kts 334°
2026-05-05 20:57 3.33987 144.45778 33844 ft 511 kts 334°
2026-05-05 20:58 3.40344 144.42565 33849 ft 511 kts 334°
2026-05-05 20:58 3.46689 144.39357 33848 ft 512 kts 334°
2026-05-05 20:59 3.53050 144.36139 33848 ft 512 kts 334°
2026-05-05 20:59 3.59407 144.32924 33849 ft 512 kts 334°
2026-05-05 21:00 3.65767 144.29707 33849 ft 512 kts 334°
2026-05-05 21:00 3.72115 144.26497 33848 ft 512 kts 334°
2026-05-05 21:01 3.78465 144.23284 33849 ft 512 kts 334°
2026-05-05 21:01 3.84824 144.20064 33848 ft 512 kts 334°
2026-05-05 21:02 3.91185 144.16845 33847 ft 511 kts 334°
2026-05-05 21:02 3.97531 144.13631 33847 ft 511 kts 334°
2026-05-05 21:03 4.03829 144.10442 33845 ft 511 kts 334°
2026-05-05 21:03 4.10205 144.07214 33846 ft 511 kts 334°
2026-05-05 21:04 4.16547 144.04001 33845 ft 510 kts 334°
2026-05-05 21:04 4.22881 144.00793 33844 ft 510 kts 334°
2026-05-05 21:05 4.29180 143.97601 33844 ft 510 kts 334°
2026-05-05 21:05 4.35518 143.94389 33848 ft 511 kts 334°
2026-05-05 21:06 4.41857 143.91176 33845 ft 511 kts 334°
2026-05-05 21:06 4.48202 143.87959 33846 ft 511 kts 334°
2026-05-05 21:07 4.54537 143.84746 33846 ft 511 kts 334°
2026-05-05 21:07 4.60877 143.81531 33846 ft 511 kts 334°
2026-05-05 21:08 4.67226 143.78310 33847 ft 511 kts 334°
2026-05-05 21:08 4.73558 143.75097 33843 ft 511 kts 334°
2026-05-05 21:09 4.79901 143.71878 33846 ft 511 kts 334°
2026-05-05 21:09 4.86257 143.68652 33846 ft 511 kts 334°
2026-05-05 21:10 4.92592 143.65437 33848 ft 511 kts 334°
2026-05-05 21:10 4.98906 143.62155 33843 ft 511 kts 329°
2026-05-05 21:11 5.04613 143.57930 33844 ft 511 kts 322°
2026-05-05 21:11 5.10127 143.53411 33845 ft 512 kts 321°
2026-05-05 21:12 5.15625 143.48856 33846 ft 512 kts 321°
2026-05-05 21:12 5.21129 143.44314 33848 ft 512 kts 321°
2026-05-05 21:13 5.26598 143.39815 33844 ft 512 kts 321°
2026-05-05 21:13 5.32105 143.35289 33848 ft 512 kts 321°
2026-05-05 21:14 5.37620 143.30754 33846 ft 512 kts 321°
2026-05-05 21:14 5.43133 143.26218 33848 ft 512 kts 321°
2026-05-05 21:15 5.48651 143.21677 33851 ft 512 kts 321°
2026-05-05 21:15 5.54161 143.17140 33848 ft 512 kts 321°
2026-05-05 21:16 5.59675 143.12600 33852 ft 512 kts 321°
2026-05-05 21:16 5.65183 143.08065 33849 ft 512 kts 321°
2026-05-05 21:17 5.70697 143.03522 33851 ft 513 kts 321°
2026-05-05 21:17 5.76216 142.98975 33852 ft 513 kts 321°
2026-05-05 21:18 5.81736 142.94425 33854 ft 513 kts 321°
2026-05-05 21:18 5.87241 142.89887 33850 ft 513 kts 321°
2026-05-05 21:19 5.92765 142.85332 33851 ft 513 kts 321°
2026-05-05 21:19 5.98293 142.80772 33850 ft 514 kts 321°
2026-05-05 21:20 6.03812 142.76218 33850 ft 514 kts 321°
2026-05-05 21:20 6.09334 142.71661 33850 ft 514 kts 321°
2026-05-05 21:21 6.14873 142.67088 33852 ft 514 kts 321°
2026-05-05 21:21 6.20392 142.62531 33853 ft 515 kts 321°
2026-05-05 21:22 6.25921 142.57963 33855 ft 515 kts 321°
2026-05-05 21:22 6.31461 142.53387 33851 ft 515 kts 321°
2026-05-05 21:23 6.36986 142.48821 33852 ft 515 kts 321°
2026-05-05 21:23 6.42486 142.44274 33852 ft 515 kts 321°
2026-05-05 21:24 6.48024 142.39694 33857 ft 515 kts 321°
2026-05-05 21:24 6.53552 142.35121 33857 ft 515 kts 321°
2026-05-05 21:25 6.59087 142.30542 33857 ft 515 kts 321°
2026-05-05 21:25 6.64620 142.25962 33858 ft 515 kts 321°
2026-05-05 21:26 6.70164 142.21373 33857 ft 515 kts 321°
2026-05-05 21:26 6.75694 142.16792 33856 ft 515 kts 321°
2026-05-05 21:27 6.81230 142.12206 33857 ft 515 kts 321°
2026-05-05 21:27 6.86766 142.07618 33858 ft 516 kts 321°
2026-05-05 21:28 6.92310 142.03023 33859 ft 516 kts 321°
2026-05-05 21:28 6.97839 141.98439 33859 ft 516 kts 321°
2026-05-05 21:29 7.03388 141.93836 33859 ft 516 kts 321°
2026-05-05 21:29 7.08923 141.89244 33861 ft 516 kts 321°
2026-05-05 21:30 7.13531 141.85420 33860 ft 516 kts 321°
2026-05-05 21:30 7.19073 141.80818 33859 ft 516 kts 321°
2026-05-05 21:31 7.24617 141.76214 33861 ft 516 kts 321°
2026-05-05 21:31 7.30159 141.71609 33864 ft 516 kts 321°
2026-05-05 21:32 7.35691 141.67011 33860 ft 517 kts 321°
2026-05-05 21:32 7.41246 141.62394 33860 ft 517 kts 321°
2026-05-05 21:33 7.46787 141.57787 33862 ft 517 kts 321°
2026-05-05 21:33 7.52336 141.53171 33865 ft 517 kts 321°
2026-05-05 21:34 7.57882 141.48555 33867 ft 517 kts 321°
2026-05-05 21:34 7.63430 141.43936 33867 ft 517 kts 321°
2026-05-05 21:35 7.68979 141.39315 33867 ft 517 kts 321°
2026-05-05 21:35 7.74530 141.34691 33866 ft 517 kts 321°
2026-05-05 21:36 7.80069 141.30074 33865 ft 517 kts 321°
2026-05-05 21:36 7.85619 141.25448 33867 ft 517 kts 321°
2026-05-05 21:37 7.91159 141.20828 33869 ft 517 kts 321°
2026-05-05 21:37 7.96692 141.16212 33867 ft 517 kts 321°
2026-05-05 21:38 8.02200 141.11616 33866 ft 516 kts 321°
2026-05-05 21:38 8.07732 141.06997 33867 ft 516 kts 321°
2026-05-05 21:39 8.13264 141.02376 33867 ft 516 kts 321°
2026-05-05 21:39 8.18794 140.97756 33865 ft 516 kts 321°
2026-05-05 21:40 8.24329 140.93130 33862 ft 516 kts 321°
2026-05-05 21:40 8.29863 140.88505 33864 ft 516 kts 321°
2026-05-05 21:41 8.35382 140.83890 33868 ft 516 kts 321°
2026-05-05 21:41 8.40917 140.79259 33866 ft 516 kts 321°
2026-05-05 21:42 8.46420 140.74653 33872 ft 516 kts 321°
2026-05-05 21:42 8.51943 140.70027 33869 ft 516 kts 321°
2026-05-05 21:43 8.57462 140.65402 33869 ft 516 kts 321°
2026-05-05 21:43 8.62990 140.60771 33870 ft 515 kts 321°
2026-05-05 21:44 8.68503 140.56151 33873 ft 515 kts 321°
2026-05-05 21:44 8.74025 140.51519 33870 ft 515 kts 321°
2026-05-05 21:45 8.79543 140.46887 33872 ft 515 kts 321°
2026-05-05 21:45 8.85051 140.42265 33871 ft 515 kts 321°
2026-05-05 21:46 8.90555 140.37645 33874 ft 514 kts 321°
2026-05-05 21:46 8.96016 140.33057 33874 ft 513 kts 321°
2026-05-05 21:47 9.01498 140.28451 33872 ft 513 kts 321°
2026-05-05 21:47 9.06990 140.23835 33873 ft 512 kts 321°
2026-05-05 21:48 9.12463 140.19229 33872 ft 512 kts 321°
2026-05-05 21:48 9.17941 140.14621 33873 ft 511 kts 321°
2026-05-05 21:49 9.23406 140.10019 33874 ft 510 kts 321°
2026-05-05 21:49 9.28849 140.05436 33872 ft 509 kts 321°
2026-05-05 21:50 9.34302 140.00842 33878 ft 509 kts 321°
2026-05-05 21:50 9.39732 139.96267 33875 ft 508 kts 321°
2026-05-05 21:51 9.45170 139.91682 33877 ft 507 kts 321°
2026-05-05 21:51 9.50586 139.87110 33873 ft 507 kts 321°
2026-05-05 21:52 9.58704 139.80257 33879 ft 506 kts 321°
2026-05-05 21:53 9.64111 139.75695 33880 ft 505 kts 321°
2026-05-05 21:53 9.69483 139.71163 33879 ft 505 kts 321°
2026-05-05 21:54 9.74879 139.66600 33883 ft 505 kts 321°
2026-05-05 21:54 9.80254 139.62054 33879 ft 504 kts 321°
2026-05-05 21:55 9.85638 139.57494 33880 ft 504 kts 321°
2026-05-05 21:55 9.91024 139.52937 33881 ft 503 kts 321°
2026-05-05 21:56 9.96392 139.48395 33882 ft 503 kts 321°
2026-05-05 21:56 10.01752 139.43856 33880 ft 502 kts 321°
2026-05-05 21:57 10.07112 139.39314 33880 ft 502 kts 321°
2026-05-05 21:57 10.12470 139.34772 33883 ft 501 kts 321°
2026-05-05 21:58 10.17818 139.30234 33880 ft 501 kts 321°
2026-05-05 21:58 10.23159 139.25702 33882 ft 500 kts 321°
2026-05-05 21:59 10.28458 139.21205 33883 ft 500 kts 321°
2026-05-05 21:59 10.33822 139.16650 33884 ft 500 kts 321°
2026-05-05 22:00 10.39161 139.12115 33883 ft 499 kts 321°
2026-05-05 22:00 10.44492 139.07582 33887 ft 499 kts 321°
2026-05-05 22:01 10.49811 139.03058 33886 ft 499 kts 321°
2026-05-05 22:01 10.55104 138.98554 33888 ft 499 kts 321°
2026-05-05 22:02 10.60452 138.94002 33890 ft 499 kts 321°
2026-05-05 22:02 10.65743 138.89497 33888 ft 499 kts 321°
2026-05-05 22:03 10.71061 138.84963 33893 ft 499 kts 321°
2026-05-05 22:03 10.76381 138.80427 33891 ft 499 kts 321°
2026-05-05 22:04 10.81705 138.75887 33888 ft 499 kts 321°
2026-05-05 22:04 10.87022 138.71350 33894 ft 499 kts 321°
2026-05-05 22:05 10.92349 138.66804 33894 ft 499 kts 321°
2026-05-05 22:05 10.97663 138.62265 33892 ft 499 kts 320°
2026-05-05 22:06 11.02985 138.57718 33897 ft 499 kts 320°
2026-05-05 22:06 11.08308 138.53167 33893 ft 499 kts 320°
2026-05-05 22:07 11.13629 138.48615 33890 ft 499 kts 320°
2026-05-05 22:07 11.18946 138.44064 33893 ft 499 kts 320°
2026-05-05 22:08 11.24265 138.39510 33898 ft 499 kts 320°
2026-05-05 22:08 11.29578 138.34958 33895 ft 499 kts 320°
2026-05-05 22:09 11.34893 138.30403 33894 ft 499 kts 320°
2026-05-05 22:09 11.40203 138.25850 33895 ft 499 kts 320°
2026-05-05 22:10 11.45507 138.21300 33896 ft 498 kts 320°
2026-05-05 22:10 11.50779 138.16774 33896 ft 498 kts 320°
2026-05-05 22:11 11.56108 138.12198 33899 ft 497 kts 320°
2026-05-05 22:11 11.61348 138.07695 33897 ft 497 kts 320°
2026-05-05 22:12 11.66647 138.03140 33898 ft 497 kts 320°
2026-05-05 22:12 11.71922 137.98603 33896 ft 496 kts 320°
2026-05-05 22:13 11.77193 137.94067 33898 ft 495 kts 320°
2026-05-05 22:13 11.82451 137.89541 33899 ft 494 kts 320°
2026-05-05 22:14 11.87708 137.85012 33903 ft 494 kts 319°
2026-05-05 22:14 11.92954 137.80490 33902 ft 494 kts 319°
2026-05-05 22:15 11.98210 137.75958 33900 ft 494 kts 319°
2026-05-05 22:15 12.03452 137.71435 33900 ft 493 kts 319°
2026-05-05 22:16 12.08674 137.66927 33902 ft 492 kts 319°
2026-05-05 22:16 12.13893 137.62420 33906 ft 491 kts 319°
2026-05-05 22:17 12.19116 137.57906 33908 ft 491 kts 319°
2026-05-05 22:17 12.24332 137.53395 33906 ft 491 kts 319°
2026-05-05 22:18 12.29543 137.48887 33906 ft 491 kts 319°
2026-05-05 22:18 12.34760 137.44372 33906 ft 491 kts 319°
2026-05-05 22:19 12.39098 137.40613 33910 ft 490 kts 319°
2026-05-05 22:19 12.44300 137.36104 33910 ft 490 kts 319°
2026-05-05 22:20 12.49500 137.31598 33910 ft 490 kts 319°
2026-05-05 22:20 12.54696 137.27091 33910 ft 490 kts 319°
2026-05-05 22:21 12.59900 137.22576 33910 ft 490 kts 319°
2026-05-05 22:21 12.65091 137.18068 33912 ft 489 kts 319°
2026-05-05 22:22 12.70284 137.13557 33910 ft 489 kts 319°
2026-05-05 22:22 12.75441 137.09072 33912 ft 489 kts 319°
2026-05-05 22:23 12.80657 137.04535 33910 ft 489 kts 319°
2026-05-05 22:23 12.85825 137.00037 33914 ft 488 kts 319°
2026-05-05 22:24 12.90997 136.95535 33915 ft 488 kts 319°
2026-05-05 22:24 12.96125 136.91067 33916 ft 487 kts 319°
2026-05-05 22:25 13.01294 136.86561 33918 ft 487 kts 319°
2026-05-05 22:25 13.06453 136.82061 33917 ft 487 kts 319°
2026-05-05 22:26 13.11620 136.77552 33917 ft 487 kts 319°
2026-05-05 22:26 13.16769 136.73055 33918 ft 486 kts 319°
2026-05-05 22:27 13.21923 136.68552 33914 ft 486 kts 319°
2026-05-05 22:27 13.27075 136.64048 33914 ft 486 kts 319°
2026-05-05 22:28 13.32216 136.59551 33917 ft 486 kts 319°
2026-05-05 22:28 13.37367 136.55042 33918 ft 486 kts 319°
2026-05-05 22:29 13.42499 136.50548 33920 ft 486 kts 319°
2026-05-05 22:29 13.47649 136.46035 33919 ft 486 kts 319°
2026-05-05 22:30 13.52791 136.41527 33923 ft 486 kts 318°
2026-05-05 22:30 13.57926 136.37022 33923 ft 485 kts 318°
2026-05-05 22:31 13.63063 136.32513 33922 ft 486 kts 318°
2026-05-05 22:31 13.68207 136.27994 33922 ft 486 kts 318°
2026-05-05 22:32 13.73350 136.23475 33926 ft 486 kts 318°
2026-05-05 22:32 13.78488 136.18956 33925 ft 486 kts 318°
2026-05-05 22:33 13.83634 136.14428 33931 ft 486 kts 318°
2026-05-05 22:33 13.88773 136.09903 33927 ft 486 kts 318°
2026-05-05 22:34 13.93865 136.05417 33932 ft 486 kts 318°
2026-05-05 22:34 13.99011 136.00898 33928 ft 486 kts 319°
2026-05-05 22:35 14.04538 135.96879 33931 ft 487 kts 324°
2026-05-05 22:35 14.10178 135.93018 33931 ft 487 kts 325°
2026-05-05 22:36 14.15833 135.89170 33930 ft 487 kts 325°
2026-05-05 22:36 14.21480 135.85314 33927 ft 487 kts 325°
2026-05-05 22:37 14.27127 135.81447 33933 ft 487 kts 324°
2026-05-05 22:37 14.32765 135.77581 33935 ft 487 kts 324°
2026-05-05 22:38 14.38397 135.73718 33930 ft 487 kts 324°
2026-05-05 22:38 14.44040 135.69845 33935 ft 487 kts 324°
2026-05-05 22:39 14.49681 135.65971 33934 ft 487 kts 324°
2026-05-05 22:39 14.55287 135.62119 33938 ft 487 kts 324°
2026-05-05 22:40 14.60958 135.58219 33935 ft 487 kts 324°
2026-05-05 22:40 14.66568 135.54360 33938 ft 487 kts 324°
2026-05-05 22:41 14.72247 135.50449 33939 ft 487 kts 324°
2026-05-05 22:41 14.77879 135.46570 33940 ft 487 kts 324°
2026-05-05 22:42 14.83486 135.42706 33941 ft 487 kts 324°
2026-05-05 22:42 14.89122 135.38817 33943 ft 487 kts 324°
2026-05-05 22:43 14.94761 135.34924 33944 ft 487 kts 324°
2026-05-05 22:43 15.00409 135.31024 33942 ft 487 kts 324°
2026-05-05 22:44 15.06037 135.27134 33943 ft 487 kts 324°
2026-05-05 22:44 15.11683 135.23229 33943 ft 488 kts 324°
2026-05-05 22:45 15.17316 135.19332 33945 ft 488 kts 324°
2026-05-05 22:45 15.22963 135.15421 33949 ft 488 kts 324°
2026-05-05 22:46 15.28603 135.11514 33951 ft 488 kts 324°
2026-05-05 22:46 15.34242 135.07604 33947 ft 488 kts 324°
2026-05-05 22:47 15.39879 135.03693 33947 ft 488 kts 324°
2026-05-05 22:47 15.45524 134.99774 33949 ft 488 kts 324°
2026-05-05 22:48 15.51156 134.95861 33949 ft 488 kts 324°
2026-05-05 22:48 15.56787 134.91946 33948 ft 488 kts 324°
2026-05-05 22:49 15.62428 134.88022 33955 ft 488 kts 324°
2026-05-05 22:49 15.68070 134.84094 33955 ft 488 kts 324°
2026-05-05 22:50 15.73705 134.80168 33955 ft 488 kts 324°
2026-05-05 22:50 15.79341 134.76239 33953 ft 488 kts 324°
2026-05-05 22:51 15.84980 134.72306 33958 ft 488 kts 324°
2026-05-05 22:51 15.90619 134.68371 33956 ft 488 kts 324°
2026-05-05 22:52 15.96251 134.64436 33956 ft 488 kts 324°
2026-05-05 22:52 16.01883 134.60499 33958 ft 488 kts 324°
2026-05-05 22:53 16.07522 134.56554 33961 ft 488 kts 324°
2026-05-05 22:53 16.13117 134.52638 33961 ft 488 kts 324°
2026-05-05 22:54 16.18761 134.48685 33960 ft 488 kts 324°
2026-05-05 22:54 16.24396 134.44736 33961 ft 488 kts 324°
2026-05-05 22:55 16.30026 134.40786 33965 ft 488 kts 324°
2026-05-05 22:55 16.35648 134.36839 33963 ft 488 kts 324°
2026-05-05 22:56 16.41286 134.32879 33965 ft 488 kts 324°
2026-05-05 22:56 16.46905 134.28930 33963 ft 488 kts 324°
2026-05-05 22:57 16.52534 134.24970 33967 ft 488 kts 324°
2026-05-05 22:57 16.58160 134.21009 33968 ft 487 kts 324°
2026-05-05 22:58 16.63779 134.17051 33962 ft 487 kts 324°
2026-05-05 22:58 16.69386 134.13098 33965 ft 487 kts 324°
2026-05-05 22:59 16.75005 134.09134 33969 ft 487 kts 324°
2026-05-05 22:59 16.80632 134.05162 33970 ft 487 kts 324°
2026-05-05 23:00 16.89058 133.99207 33970 ft 487 kts 324°
2026-05-05 23:00 16.94634 133.95264 33971 ft 487 kts 324°
2026-05-05 23:01 17.00284 133.91265 33973 ft 487 kts 324°
2026-05-05 23:01 17.05889 133.87295 33972 ft 488 kts 324°
2026-05-05 23:02 17.11473 133.83337 33974 ft 488 kts 324°
2026-05-05 23:02 17.17080 133.79359 33977 ft 488 kts 324°
2026-05-05 23:03 17.22692 133.75375 33973 ft 488 kts 324°
2026-05-05 23:03 17.28305 133.71387 33978 ft 487 kts 324°
2026-05-05 23:04 17.33926 133.67392 33979 ft 488 kts 323°
2026-05-05 23:04 17.39537 133.63399 33980 ft 488 kts 323°
2026-05-05 23:05 17.45147 133.59405 33978 ft 488 kts 323°
2026-05-05 23:05 17.50761 133.55405 33975 ft 488 kts 323°
2026-05-05 23:06 17.56373 133.51402 33983 ft 488 kts 323°
2026-05-05 23:06 17.61992 133.47393 33978 ft 488 kts 323°
2026-05-05 23:07 17.66651 133.44066 33978 ft 488 kts 323°
2026-05-05 23:07 17.72275 133.40047 33979 ft 489 kts 323°
2026-05-05 23:08 17.77879 133.36038 33980 ft 489 kts 323°
2026-05-05 23:08 17.83509 133.32008 33987 ft 489 kts 323°
2026-05-05 23:09 17.89128 133.27984 33987 ft 489 kts 323°
2026-05-05 23:09 17.94747 133.23956 33988 ft 489 kts 323°
2026-05-05 23:10 18.00328 133.19952 33991 ft 489 kts 323°
2026-05-05 23:10 18.05938 133.15924 33989 ft 489 kts 323°
2026-05-05 23:11 18.11592 133.11861 33987 ft 489 kts 323°
2026-05-05 23:11 18.17167 133.07852 33989 ft 489 kts 323°
2026-05-05 23:12 18.22799 133.03798 33991 ft 490 kts 323°
2026-05-05 23:12 18.28417 132.99752 33994 ft 490 kts 323°
2026-05-05 23:13 18.34038 132.95700 33994 ft 490 kts 323°
2026-05-05 23:13 18.39666 132.91639 33993 ft 490 kts 323°
2026-05-05 23:14 18.45288 132.87581 33994 ft 490 kts 323°
2026-05-05 23:14 18.50912 132.83517 33993 ft 490 kts 323°
2026-05-05 23:15 18.56536 132.79449 33998 ft 491 kts 323°
2026-05-05 23:15 18.62161 132.75378 33996 ft 491 kts 323°
2026-05-05 23:16 18.67791 132.71300 33996 ft 491 kts 323°
2026-05-05 23:16 18.73417 132.67222 33997 ft 491 kts 323°
2026-05-05 23:17 18.79050 132.63134 33997 ft 491 kts 323°
2026-05-05 23:17 18.84681 132.59046 33996 ft 491 kts 323°
2026-05-05 23:18 18.90295 132.54966 34000 ft 491 kts 323°
2026-05-05 23:18 18.95897 132.50891 33999 ft 491 kts 323°
2026-05-05 23:19 19.01525 132.46794 34009 ft 491 kts 323°
2026-05-05 23:19 19.07156 132.42692 34012 ft 491 kts 323°
2026-05-05 23:20 19.12778 132.38592 34013 ft 491 kts 323°
2026-05-05 23:20 19.18410 132.34482 34016 ft 491 kts 322°
2026-05-05 23:21 19.24033 132.30375 34012 ft 492 kts 322°
2026-05-05 23:21 19.29659 132.26262 34010 ft 491 kts 322°
2026-05-05 23:22 19.35289 132.22143 34014 ft 491 kts 322°
2026-05-05 23:22 19.40909 132.18028 34014 ft 492 kts 322°
2026-05-05 23:23 19.46529 132.13908 34012 ft 491 kts 322°
2026-05-05 23:23 19.52149 132.09786 34012 ft 491 kts 322°
2026-05-05 23:24 19.57776 132.05655 34014 ft 491 kts 322°
2026-05-05 23:24 19.63402 132.01521 34014 ft 491 kts 322°
2026-05-05 23:25 19.69020 131.97390 34010 ft 491 kts 322°
2026-05-05 23:25 19.74630 131.93260 34013 ft 491 kts 322°
2026-05-05 23:26 19.80239 131.89127 34012 ft 491 kts 322°
2026-05-05 23:26 19.85851 131.84990 34016 ft 491 kts 322°
2026-05-05 23:27 19.91420 131.80879 34017 ft 490 kts 322°
2026-05-05 23:27 19.97021 131.76742 34019 ft 490 kts 322°
2026-05-05 23:28 20.02622 131.72602 34019 ft 490 kts 322°
2026-05-05 23:28 20.08204 131.68471 34020 ft 490 kts 322°
2026-05-05 23:29 20.13794 131.64330 34023 ft 489 kts 322°
2026-05-05 23:29 20.19378 131.60191 34025 ft 489 kts 322°
2026-05-05 23:30 20.24960 131.56049 34027 ft 489 kts 322°
2026-05-05 23:30 20.30535 131.51910 34010 ft 489 kts 322°
2026-05-05 23:31 20.36101 131.47773 34016 ft 488 kts 321°
2026-05-05 23:31 20.41682 131.43621 34014 ft 488 kts 321°
2026-05-05 23:32 20.47250 131.39475 34018 ft 488 kts 321°
2026-05-05 23:32 20.52812 131.35330 34014 ft 488 kts 321°
2026-05-05 23:33 20.58380 131.31176 34017 ft 488 kts 321°
2026-05-05 23:33 20.63945 131.27021 34016 ft 488 kts 321°
2026-05-05 23:34 20.69503 131.22867 34020 ft 488 kts 321°
2026-05-05 23:34 20.75060 131.18711 34020 ft 488 kts 321°
2026-05-05 23:35 20.80606 131.14558 34017 ft 488 kts 321°
2026-05-05 23:35 20.86167 131.10391 34015 ft 488 kts 321°
2026-05-05 23:36 20.91690 131.06249 34017 ft 488 kts 321°
2026-05-05 23:36 20.97272 131.02059 34017 ft 488 kts 321°
2026-05-05 23:37 21.02548 130.97617 34014 ft 485 kts 316°
2026-05-05 23:37 21.07630 130.92878 34015 ft 484 kts 315°
2026-05-05 23:38 21.12716 130.88073 34015 ft 484 kts 315°
2026-05-05 23:38 21.17772 130.83298 34017 ft 485 kts 315°
2026-05-05 23:39 21.22839 130.78520 34015 ft 485 kts 315°
2026-05-05 23:39 21.27859 130.73785 34015 ft 485 kts 315°
2026-05-05 23:40 21.32925 130.69003 34016 ft 485 kts 315°
2026-05-05 23:40 21.37983 130.64223 34017 ft 484 kts 315°
2026-05-05 23:41 21.43031 130.59447 34015 ft 484 kts 315°
2026-05-05 23:41 21.48088 130.54660 34016 ft 484 kts 314°
2026-05-05 23:42 21.53149 130.49863 34015 ft 484 kts 314°
2026-05-05 23:42 21.58189 130.45080 34016 ft 484 kts 314°
2026-05-05 23:43 21.63238 130.40286 34017 ft 484 kts 314°
2026-05-05 23:43 21.68280 130.35493 34020 ft 484 kts 314°
2026-05-05 23:44 21.73321 130.30697 34022 ft 483 kts 314°
2026-05-05 23:44 21.78353 130.25904 34014 ft 483 kts 314°
2026-05-05 23:45 21.83382 130.21109 34023 ft 483 kts 314°
2026-05-05 23:45 21.88405 130.16316 34015 ft 482 kts 314°
2026-05-05 23:46 21.93422 130.11523 34022 ft 482 kts 314°
2026-05-05 23:46 21.98435 130.06730 34019 ft 481 kts 314°
2026-05-05 23:47 22.03439 130.01941 34017 ft 481 kts 314°
2026-05-05 23:47 22.08440 129.97149 34020 ft 481 kts 314°
2026-05-05 23:48 22.13431 129.92362 34014 ft 480 kts 313°
2026-05-05 23:48 22.18423 129.87570 34020 ft 480 kts 313°
2026-05-05 23:49 22.23413 129.82775 34021 ft 480 kts 313°
2026-05-05 23:49 22.28395 129.77983 34018 ft 480 kts 313°
2026-05-05 23:50 22.33376 129.73187 34023 ft 479 kts 313°
2026-05-05 23:50 22.38353 129.68390 34014 ft 479 kts 313°
2026-05-05 23:51 22.43323 129.63594 34016 ft 479 kts 313°
2026-05-05 23:51 22.48300 129.58788 34017 ft 479 kts 313°
2026-05-05 23:52 22.53275 129.53979 34018 ft 479 kts 313°
2026-05-05 23:52 22.58214 129.49200 34019 ft 479 kts 313°
2026-05-05 23:53 22.63179 129.44391 34017 ft 479 kts 313°
2026-05-05 23:53 22.68144 129.39577 34013 ft 479 kts 313°
2026-05-05 23:54 22.73113 129.34754 34016 ft 479 kts 313°
2026-05-05 23:54 22.78069 129.29939 34018 ft 479 kts 313°
2026-05-05 23:55 22.82186 129.25935 34016 ft 478 kts 313°
2026-05-05 23:55 22.87143 129.21111 34016 ft 478 kts 313°
2026-05-05 23:56 22.92086 129.16294 34016 ft 478 kts 312°
2026-05-05 23:56 22.97069 129.11432 34014 ft 478 kts 313°
2026-05-05 23:57 23.01293 129.06068 34014 ft 466 kts 297°
2026-05-05 23:57 23.04443 128.99952 34010 ft 463 kts 293°
2026-05-05 23:58 23.07400 128.93736 34009 ft 463 kts 292°
2026-05-05 23:58 23.10342 128.87503 34014 ft 464 kts 292°
2026-05-05 23:59 23.13300 128.81279 34005 ft 464 kts 292°
2026-05-05 23:59 23.16266 128.75063 34009 ft 464 kts 292°
2026-05-06 00:00 23.19233 128.68839 34008 ft 464 kts 292°
2026-05-06 00:00 23.22197 128.62615 34007 ft 463 kts 292°
2026-05-06 00:01 23.25158 128.56387 34004 ft 464 kts 292°
2026-05-06 00:01 23.28113 128.50162 34005 ft 464 kts 292°
2026-05-06 00:02 23.31071 128.43924 34006 ft 464 kts 292°
2026-05-06 00:02 23.34023 128.37691 34004 ft 464 kts 292°
2026-05-06 00:03 23.36975 128.31448 34004 ft 464 kts 292°
2026-05-06 00:03 23.39925 128.25203 34001 ft 464 kts 292°
2026-05-06 00:04 23.42876 128.18949 34007 ft 464 kts 292°
2026-05-06 00:04 23.45826 128.12687 34006 ft 464 kts 292°
2026-05-06 00:05 23.50246 128.03287 34002 ft 465 kts 292°
2026-05-06 00:06 23.53191 127.97017 34004 ft 465 kts 292°
2026-05-06 00:06 23.56137 127.90736 34003 ft 466 kts 292°
2026-05-06 00:07 23.59084 127.84444 33996 ft 466 kts 292°
2026-05-06 00:07 23.62028 127.78150 33996 ft 466 kts 292°
2026-05-06 00:08 23.64972 127.71848 33999 ft 466 kts 292°
2026-05-06 00:08 23.67912 127.65546 34002 ft 467 kts 292°
2026-05-06 00:09 23.70855 127.59230 34000 ft 467 kts 292°
2026-05-06 00:09 23.73793 127.52916 33994 ft 467 kts 292°
2026-05-06 00:10 23.76713 127.46633 33996 ft 467 kts 292°
2026-05-06 00:10 23.79643 127.40320 33994 ft 466 kts 292°
2026-05-06 00:11 23.82575 127.33994 33992 ft 466 kts 292°
2026-05-06 00:11 23.85498 127.27680 33992 ft 466 kts 292°
2026-05-06 00:12 23.88418 127.21363 33990 ft 465 kts 292°
2026-05-06 00:12 23.91329 127.15058 33994 ft 464 kts 292°
2026-05-06 00:13 23.94231 127.08762 33994 ft 463 kts 292°
2026-05-06 00:13 23.97125 127.02476 33996 ft 462 kts 291°
2026-05-06 00:14 24.00011 126.96199 33993 ft 461 kts 291°
2026-05-06 00:14 24.02890 126.89931 33994 ft 460 kts 291°
2026-05-06 00:15 24.05759 126.83674 33997 ft 460 kts 291°
2026-05-06 00:15 24.08620 126.77425 33989 ft 459 kts 291°
2026-05-06 00:16 24.11476 126.71179 33995 ft 459 kts 291°
2026-05-06 00:16 24.14344 126.64985 33987 ft 460 kts 292°
2026-05-06 00:17 24.17325 126.58728 33997 ft 461 kts 292°
2026-05-06 00:17 24.20268 126.52549 33991 ft 461 kts 292°
2026-05-06 00:18 24.23224 126.46306 33996 ft 462 kts 292°
2026-05-06 00:18 24.26173 126.40054 33989 ft 463 kts 292°
2026-05-06 00:19 24.29126 126.33783 33990 ft 463 kts 292°
2026-05-06 00:19 24.32083 126.27495 33993 ft 465 kts 292°
2026-05-06 00:20 24.35044 126.21193 33997 ft 465 kts 293°
2026-05-06 00:20 24.38007 126.14878 33992 ft 466 kts 293°
2026-05-06 00:21 24.40970 126.08557 33997 ft 466 kts 293°
2026-05-06 00:21 24.43933 126.02224 33999 ft 466 kts 293°
2026-05-06 00:22 24.46891 125.95894 33997 ft 466 kts 293°
2026-05-06 00:22 24.49850 125.89554 34002 ft 467 kts 293°
2026-05-06 00:23 24.52808 125.83207 33997 ft 467 kts 293°
2026-05-06 00:23 24.55763 125.76856 33998 ft 467 kts 293°
2026-05-06 00:24 24.58717 125.70499 33998 ft 467 kts 293°
2026-05-06 00:24 24.61673 125.64131 33996 ft 468 kts 292°
2026-05-06 00:25 24.64607 125.57800 33997 ft 468 kts 292°
2026-05-06 00:25 24.67563 125.51413 33999 ft 469 kts 292°
2026-05-06 00:26 24.70517 125.45021 33997 ft 469 kts 292°
2026-05-06 00:26 24.73427 125.38717 33997 ft 470 kts 292°
2026-05-06 00:27 24.76357 125.32285 33994 ft 469 kts 290°
2026-05-06 00:27 24.78192 125.25477 33997 ft 463 kts 277°
2026-05-06 00:28 24.79163 125.18478 33962 ft 463 kts 275°
2026-05-06 00:28 24.80004 125.11451 33964 ft 464 kts 275°
2026-05-06 00:29 24.80845 125.04408 33963 ft 464 kts 275°
2026-05-06 00:29 24.81705 124.97356 33991 ft 466 kts 275°
2026-05-06 00:30 24.82571 124.90289 33979 ft 466 kts 275°
2026-05-06 00:30 24.83444 124.83210 33979 ft 466 kts 275°
2026-05-06 00:31 24.84305 124.76133 33983 ft 467 kts 275°
2026-05-06 00:31 24.85158 124.69044 33981 ft 467 kts 275°
2026-05-06 00:32 24.86011 124.61962 33981 ft 467 kts 275°
2026-05-06 00:32 24.86863 124.54876 33988 ft 467 kts 275°
2026-05-06 00:33 24.87711 124.47781 33991 ft 467 kts 275°
2026-05-06 00:33 24.88555 124.40700 34004 ft 466 kts 274°
2026-05-06 00:34 24.89395 124.33623 34004 ft 466 kts 274°
2026-05-06 00:34 24.90231 124.26553 33995 ft 465 kts 274°
2026-05-06 00:35 24.91056 124.19543 34002 ft 464 kts 274°
2026-05-06 00:35 24.91882 124.12495 34011 ft 463 kts 274°